Seeley, CA

9:07 AM PST on February 06, 2016 (GMT -0800)
El Centro Naval Air Facility

Weather History for KNJK - March, 2014

Change the Weather History Date:

Friday, March 14, 2014

  Actual Average Record
Temperature  
Mean Temperature 70 °F -  
Max Temperature 88 °F 77 °F 96 °F (2013)
Min Temperature 54 °F 53 °F 41 °F (2006)
Cooling Degree Days 6    
Growing Degree Days 20 (Base 50)    
Moisture  
Dew Point 24 °F    
Average Humidity 21    
Maximum Humidity 40    
Minimum Humidity 6    
Precipitation  
Precipitation 0.00 in - - ()
Sea Level Pressure  
Sea Level Pressure 29.99 in    
Wind  
Wind Speed 8 mph (WNW)    
Max Wind Speed 10 mph    
Max Gust Speed 17 mph    
Visibility 10 miles    
Events      
Averages and records for this station are not official NWS values.
T = Trace of Precipitation, MM = Missing Value Source: NWS Daily Summary

Daily Weather History Graph

Daily Weather History Graph

Search for Another Location

Airport or City:

Trip Planner

Search our weather history database for the weather conditions in past years. The results will help you decide how hot, cold, wet, or windy it might be!

Date:

Astronomy

Mar. 14, 2014 Rise Set
Actual Time 6:54 AM PDT 6:49 PM PDT
Civil Twilight 6:29 AM PDT 7:14 PM PDT
Nautical Twilight 6:01 AM PDT 7:43 PM PDT
Astronomical Twilight 5:32 AM PDT 8:12 PM PDT
Moon 5:19 PM PDT (3/14) 5:32 AM PDT (3/14)
Length of Visible Light 12h 45m
Length of Day
11h 55m
Waxing Gibbous, 96% of the Moon is Illuminated
Mar 14
Waxing Gibbous
Mar 16
Full
Mar 23
Last Quarter
Mar 30
New
Apr 7
First Quarter

Hourly Weather History & Observations

Time (PDT) Temp. Dew Point Humidity Pressure Visibility Wind Dir Wind Speed Gust Speed Precip Events Conditions
12:56 AM 59.0 °F 34.0 °F 39% 29.93 in 10.0 mi West 8.1 mph - N/A   Clear
1:56 AM 55.9 °F 32.0 °F 40% 29.94 in 10.0 mi West 8.1 mph - N/A   Clear
2:56 AM 57.9 °F 30.9 °F 36% 29.94 in 10.0 mi West 6.9 mph - N/A   Clear
3:56 AM 54.0 °F 27.0 °F 35% 29.94 in 10.0 mi West 8.1 mph - N/A   Clear
4:56 AM 54.0 °F 28.9 °F 38% 29.94 in 10.0 mi WNW 5.8 mph - N/A   Clear
5:56 AM 55.0 °F 28.0 °F 35% 29.96 in 10.0 mi WNW 5.8 mph - N/A   Clear
6:56 AM 54.0 °F 28.0 °F 37% 29.98 in 10.0 mi NNW 5.8 mph - N/A   Partly Cloudy
7:56 AM 61.0 °F 27.0 °F 27% 30.00 in 10.0 mi WNW 8.1 mph - N/A   Partly Cloudy
8:56 AM 71.1 °F 28.9 °F 21% 30.04 in 10.0 mi NW 9.2 mph - N/A   Partly Cloudy
9:56 AM 75.9 °F 26.1 °F 16% 30.05 in 10.0 mi North 5.8 mph - N/A   Clear
10:56 AM 80.1 °F 17.1 °F 9% 30.05 in 10.0 mi NW 9.2 mph - N/A   Clear
11:56 AM 82.9 °F 17.1 °F 9% 30.05 in 10.0 mi North 10.4 mph - N/A   Clear
12:56 PM 84.9 °F 17.1 °F 8% 30.04 in 10.0 mi NNW 10.4 mph 17.3 mph N/A   Clear
1:56 PM 86.0 °F 18.0 °F 8% 30.02 in 10.0 mi NW 8.1 mph - N/A   Clear
2:56 PM 87.1 °F 16.0 °F 7% 29.99 in 10.0 mi North 5.8 mph 17.3 mph N/A   Clear
3:56 PM 87.1 °F 12.9 °F 6% 29.98 in 10.0 mi NW 8.1 mph - N/A   Clear
4:56 PM 87.1 °F 14.0 °F 7% 29.96 in 10.0 mi North 8.1 mph - N/A   Clear
5:56 PM 86.0 °F 17.1 °F 8% 29.96 in 10.0 mi Variable 4.6 mph - N/A   Clear
7:56 PM 73.9 °F 23.0 °F 15% 29.99 in 10.0 mi SSW 6.9 mph - N/A   Clear
8:56 PM 73.0 °F 23.0 °F 15% 30.01 in 10.0 mi WSW 10.4 mph - N/A   Clear
9:56 PM 70.0 °F 28.0 °F 21% 30.03 in 10.0 mi WSW 9.2 mph - N/A   Clear
10:56 PM 64.9 °F 28.9 °F 26% 30.04 in 10.0 mi WSW 6.9 mph - N/A   Clear
11:56 PM 61.0 °F 27.0 °F 27% 30.04 in 10.0 mi West 4.6 mph - N/A   Clear